Regional Weather Roundup
Issued by NWS Albany, NY

Home | Current Version | Previous Version | Graphics & Text | Print | Product List | Glossary On
Versions: 1 2 3 4 5 6 7 8 9 10 11 12 13 14 15 16 17 18 19 20 21 22 23 24 25 26 27 28 29 30 31 32 33 34 35 36 37 38 39 40 41 42 43 44 45 46 47 48 49 50
000
ASUS41 KALY 300310
RWRALY

NEW YORK STATE HOURLY WEATHER ROUNDUP
NATIONAL WEATHER SERVICE ALBANY NY
1100 PM EDT WED JUL 29 2015

NOTE: "FAIR" INDICATES FEW OR NO CLOUDS BELOW 12,000 FEET WITH NO
SIGNIFICANT WEATHER AND/OR NO OBSTRUCTIONS TO VISIBILITY.

NYZ032-033-038>043-046>054-057>066-NYZ062>081-300400-
EAST


CITY           SKY/WX    TMP DP  RH WIND       PRES   REMARKS
ALBANY         CLEAR     77  65  66 CALM      29.89S
GLENS FALLS    CLEAR     71  67  87 CALM      29.88F
POUGHKEEPSIE   CLEAR     74  68  81 CALM      29.90F
NEWBURGH       CLEAR     79  66  65 CALM      29.94S
MONTGOMERY     CLEAR     73  67  81 SW3       29.92F
WHITE PLAINS   CLEAR     76  71  85 CALM      29.93F
ISLIP          PTCLDY    79  73  82 SW8       29.92F
NEW YORK CITY  PTCLDY    85  70  60 SW10      29.92S
CENTRAL PARK   CLEAR     84  70  62 VRB6      29.95F
$$

NYZ005>009-017-018-044>046-055-056-300400-
CENTRAL


CITY           SKY/WX    TMP DP  RH WIND       PRES   REMARKS
FULTON         CLEAR     71  67  87 VRB3      29.86F
SYRACUSE       PTCLDY    74  66  76 E6        29.87S
ROME           CLEAR     74  67  78 E5        29.90S
ELMIRA         PTCLDY    70  67  90 CALM      29.92S
BINGHAMTON     CLEAR     74  63  68 SW8       29.97S
MONTICELLO     CLEAR     70  66  88 CALM      29.99F
$$

NYZ026>034-041>043-300400-
NORTH


CITY           SKY/WX    TMP DP  RH WIND       PRES   REMARKS
WATERTOWN      PTCLDY    73  65  75 SE5       29.84
FORT DRUM      NOT AVBL
MASSENA        CLEAR     69  64  84 CALM      29.85S
SARANAC LAKE   CLEAR     64  62  93 CALM      29.94S FOG
PLATTSBURGH    PTCLDY    70  69  97 CALM      29.85F
$$

NYZ001>004-010>016-019>021-300400-
WEST


CITY           SKY/WX    TMP DP  RH WIND       PRES   REMARKS
NIAGARA FALLS  MOCLDY    77  69  76 SW7       29.85S
BUFFALO        MOCLDY    79  68  69 SW6       29.87S
DUNKIRK        MOCLDY    74  68  81 S3        29.88S
JAMESTOWN      MOCLDY    72  66  83 S5        29.95F
WELLSVILLE     MOCLDY    76  66  71 S7        29.99F
ROCHESTER      MOCLDY    77  68  73 W5        29.86F
PENN YAN       PTCLDY    75  66  73 SW5       29.91S
$$

             KEY
       WCI = WIND CHILL INDEX
       VSB = VISIBILITY
       HX  = HEAT INDEX
$$


USA.gov is the U.S. government's official web portal to all federal, state and local government web resources and services.